Temperature
18 18 18 18 18 18 18 18 18 18 18 18 18 18 18 17 17 17 17 17 17 16 16 16 16 16 16 16 16 15 15 15 15 15 15 15 15 15
17 17 17 17 18 18 18 18 18 18 17 18 17 18 17 17 17 17 17 17 16 16 16 16 16 16 16 15 15 15 15 15 15 15 15 15 15 14
17 17 17 17 17 17 17 17 17 17 17 17 17 17 17 17 17 16 16 16 16 16 16 16 16 16 15 15 15 15 15 15 15 15 15 14 14 14
17 17 17 17 17 17 17 17 17 17 17 17 17 17 17 17 16 16 16 16 16 16 16 15 15 15 15 15 15 15 15 15 15 15 14 14 14 14
17 17 17 17 17 17 17 16 16 16 17 17 17 16 16 16 16 16 15 15 15 15 15 15 15 15 15 15 15 15 15 14 14 14 14 14 14 14
16 16 16 16 16 16 16 16 16 16 16 16 16 16 16 16 15 15 15 15 15 15 15 15 15 15 15 15 15 14 14 14 14 14 14 14 14 13
16 16 16 16 16 16 16 16 16 16 16 15 15 15 15 15 15 15 14 15 14 14 14 14 14 14 14 14 14 14 14 14 14 13 13 13 13 13
16 16 16 16 16 16 16 15 15 15 15 15 15 15 15 14 14 14 14 14 14 14 14 14 14 14 14 14 14 14 13 13 13 13 13 13 13 13
16 16 15 15 15 15 15 15 15 15 15 15 15 14 14 14 14 14 14 14 14 14 14 14 14 14 14 13 13 13 13 13 13 13 12 12 12 12
16 15 15 15 15 15 15 15 15 15 14 14 14 14 14 14 14 14 13 13 13 14 13 13 13 13 13 13 13 13 13 13 12 12 12 12 12 12
15 15 15 15 15 15 15 14 14 14 14 14 14 14 14 14 14 13 13 13 13 13 13 13 13 13 13 13 12 12 12 12 12 12 12 12 12 12
15 15 15 15 15 14 14 14 14 14 14 14 14 14 14 13 13 13 13 12 12 12 13 12 12 12 12 12 12 12 12 12 12 11 11 11 11 11
14 14 14 14 14 14 14 14 14 14 14 14 14 13 13 13 13 13 13 12 12 12 12 12 12 12 12 12 12 12 12 12 11 11 11 11 11 11
14 14 14 14 14 14 14 14 14 13 13 13 13 13 13 13 13 12 12 12 12 12 12 12 12 12 11 11 11 11 11 11 11 11 11 11 11 11
14 14 14 14 14 14 14 14 13 13 13 13 12 12 12 12 12 12 12 12 12 12 12 12 12 11 11 11 11 11 11 11 11 11 11 11 11 11
13 13 13 13 13 13 13 13 13 13 13 12 12 12 12 12 12 12 11 12 11 11 11 11 11 11 11 11 11 11 11 11 11 11 11 11 11 10
13 13 13 13 13 13 13 13 13 12 12 12 12 12 12 12 11 11 11 11 11 11 11 11 11 11 11 11 11 11 10 10 10 10 10 10 10 10
13 12 12 13 13 13 13 12 12 12 12 12 12 12 12 11 11 11 11 11 11 11 11 11 11 11 10 10 10 10 10 10 10 10 10 10 10 9
12 12 12 12 12 12 12 12 12 12 12 12 12 11 11 11 11 11 11 11 11 10 10 10 10 10 10 10 10 10 10 10 10 10 10 10 9 9
12 12 12 12 12 12 12 12 12 11 11 11 11 11 11 11 11 10 10 10 10 10 10 10 10 10 10 10 10 10 10 10 10 9 9 9 9 9
11 11 11 11 11 11 11 11 11 11 11 11 11 11 10 10 10 10 10 10 10 10 10 10 10 10 10 10 10 10 10 10 10 9 9 9 9 9
11 11 11 11 11 11 11 11 11 10 10 10 10 10 10 10 10 10 10 10 10 10 10 10 10 10 9 9 9 9 9 9 9 9 9 9 9 9
11 11 11 11 11 10 10 10 10 10 10 10 10 10 10 10 10 10 10 9 9 9 9 9 9 9 9 9 9 9 9 9 9 9 9 9 9 9
Wind_Speed
3 3 3 3 3 2 3 2 2 2 2 2 2 1 3 4 6 6 7 11 12 11 10 9 8 8 7 6 5 6 5 4 4 5 6 6 6 6
3 2 2 3 3 2 2 3 3 2 2 2 1 2 2 2 5 5 6 9 13 12 12 10 10 9 9 8 7 6 5 5 5 5 6 5 5 6
3 2 3 2 3 2 2 2 1 1 2 2 1 1 2 1 3 3 6 7 8 12 12 11 10 11 10 9 8 7 6 6 6 6 5 5 5 5
3 2 3 3 2 3 2 2 1 1 1 2 1 1 1 2 3 3 4 5 6 10 11 11 11 11 10 10 9 8 7 6 6 5 5 5 6 6
3 3 3 3 3 3 2 2 2 2 1 2 2 1 1 1 1 2 2 1 4 6 9 10 10 10 10 10 9 8 7 7 6 5 5 5 5 6
2 2 2 3 3 3 3 2 2 2 2 2 2 2 1 1 1 1 1 1 2 1 3 5 7 8 9 9 9 8 7 6 5 5 5 5 5 5
3 3 2 2 2 2 3 2 2 2 2 2 2 2 1 1 1 2 2 2 2 1 1 2 3 4 5 6 7 8 7 7 6 5 5 5 5 5
4 3 3 2 2 2 2 2 3 3 3 3 3 2 2 2 2 3 2 2 2 1 1 2 2 3 4 5 8 9 8 7 7 6 5 5 5 5
4 3 4 2 1 1 2 3 3 5 5 4 3 3 3 2 2 3 2 3 3 3 2 2 2 2 2 5 10 11 10 9 8 7 6 6 5 5
3 3 3 2 2 2 3 3 3 3 5 5 4 4 3 2 3 3 3 2 2 1 1 2 1 1 1 4 9 11 11 10 9 8 7 7 7 6
3 2 2 2 3 2 3 3 3 2 2 2 4 4 4 4 3 1 2 1 2 2 0 1 1 1 1 2 5 9 10 10 9 9 8 7 6 5
3 3 2 2 3 3 3 3 3 3 2 2 2 3 4 4 4 4 3 2 2 2 1 1 1 1 1 1 2 4 6 8 10 10 9 8 6 4
2 2 2 3 3 4 4 3 3 3 3 3 2 2 2 2 3 3 3 2 2 2 1 1 1 1 1 1 1 2 4 4 5 7 9 9 7 5
3 2 2 4 5 5 5 5 4 3 3 2 2 2 2 2 2 2 2 2 2 3 2 2 2 2 2 2 2 2 2 3 4 4 4 6 7 7
3 3 3 4 5 5 7 7 4 3 3 3 2 2 2 2 2 1 1 1 1 3 3 3 3 3 3 3 3 2 2 1 2 2 3 3 3 3
3 3 4 6 6 6 5 5 5 4 3 3 3 2 1 1 1 1 2 2 1 2 2 3 3 2 2 3 2 2 2 2 2 1 2 2 2 2
2 2 3 3 4 4 4 4 4 4 4 3 2 2 2 1 1 2 2 2 2 2 2 1 2 2 2 2 2 2 2 1 2 2 2 1 1 2
1 3 3 3 3 3 3 3 3 4 3 3 2 2 2 2 2 2 2 2 2 2 2 2 1 1 1 1 1 2 1 1 1 1 1 1 1 1
2 3 3 3 2 2 2 2 2 2 2 2 2 2 2 2 2 2 2 2 2 2 2 1 1 1 2 2 1 1 1 1 1 1 1 1 1 1
4 4 3 3 3 3 2 2 1 1 1 1 1 1 2 2 2 2 3 3 2 2 1 1 2 2 2 2 1 2 3 2 2 2 1 1 1 1
3 3 3 3 2 2 2 1 1 1 1 2 2 2 2 2 2 3 3 3 3 3 3 3 3 3 2 1 1 1 1 2 2 2 2 2 2 2
3 3 2 2 2 1 1 1 2 1 1 2 2 2 3 3 3 3 3 3 3 3 2 2 1 2 2 2 2 2 1 1 1 1 2 3 3 3
2 2 2 2 1 1 1 2 2 2 2 2 2 2 3 3 3 3 3 3 3 3 2 2 2 1 2 2 2 2 2 2 2 2 1 2 3 5
Wind_Direction
255 263 269 273 265 248 238 223 226 257 254 237 207 183 158 142 165 179 172 189 190 192 198 201 206 212 214 210 213 215 216 220 223 218 222 227 227 225
246 253 272 284 287 275 248 242 227 236 259 242 228 179 152 172 168 178 189 191 189 195 201 203 207 209 206 204 206 206 210 215 214 214 223 223 226 228
262 253 264 282 301 310 295 276 256 238 246 263 245 192 178 163 158 194 195 186 194 200 202 207 209 206 203 203 207 209 212 213 218 222 220 218 219 222
257 257 266 272 279 296 305 308 301 270 222 241 245 220 210 179 175 204 214 211 199 197 197 203 206 205 204 205 207 208 210 210 214 216 212 208 209 215
247 251 258 265 268 275 271 284 282 283 252 231 241 224 229 220 196 229 242 249 246 194 190 201 205 207 205 205 204 202 200 203 205 212 216 212 212 218
247 246 255 254 260 266 253 256 268 270 273 266 248 235 228 230 212 238 252 262 280 226 174 190 200 201 197 197 197 196 192 192 197 206 214 211 213 219
249 242 237 225 238 272 276 282 280 272 256 258 250 256 253 254 254 249 242 241 249 220 182 204 182 187 186 193 193 191 189 188 192 199 203 208 216 222
254 245 220 206 215 224 268 284 265 260 263 260 255 249 236 226 236 244 229 236 249 222 220 245 188 178 185 181 181 182 186 192 194 198 201 210 220 227
256 257 262 246 201 254 240 232 245 247 239 244 260 261 252 231 225 243 246 246 253 226 212 240 207 199 189 171 170 176 184 190 193 197 204 206 214 226
259 248 238 242 260 255 261 254 249 251 244 232 240 252 253 237 242 241 250 257 268 267 188 236 239 239 154 150 178 183 189 193 197 202 206 208 212 223
244 238 228 223 253 251 252 257 265 278 274 254 230 226 229 222 217 234 237 229 271 267 236 228 224 233 171 171 188 193 196 200 205 207 209 212 215 225
238 216 208 218 244 241 242 246 258 275 275 274 242 232 225 222 217 216 233 235 262 270 250 252 237 216 230 219 178 188 206 215 217 218 217 215 214 213
253 238 219 199 211 232 236 241 246 265 260 244 231 219 223 218 210 215 219 217 241 266 258 269 280 265 234 260 249 214 208 203 207 221 218 216 210 204
273 273 236 205 219 233 240 250 251 251 252 245 234 228 227 217 212 208 210 210 214 223 235 234 250 239 239 263 264 246 230 203 196 198 193 199 208 217
276 276 271 239 239 238 236 238 235 238 236 230 232 236 232 202 179 195 178 194 243 247 237 225 229 236 235 246 241 234 244 251 212 180 176 173 181 191
272 276 259 246 250 253 244 226 219 227 233 230 228 225 220 201 199 212 228 217 232 264 248 231 231 229 247 254 243 237 226 212 211 185 161 160 182 196
305 272 255 239 233 233 235 223 216 218 224 227 226 218 205 199 215 224 234 239 230 228 242 245 219 217 202 223 237 237 223 223 202 187 172 186 206 183
244 268 266 260 253 242 235 235 232 227 218 212 212 208 200 199 204 215 218 225 243 252 236 227 212 200 291 305 232 225 227 222 197 170 169 167 187 155
245 269 278 281 274 267 252 237 231 225 209 211 218 213 213 215 215 217 223 222 225 241 243 225 218 202 228 267 281 293 241 193 177 189 190 180 193 191
248 263 276 282 281 279 277 274 261 224 200 213 223 232 226 224 228 228 227 220 223 233 249 238 206 208 224 229 224 258 248 210 193 191 193 166 156 134
263 268 275 280 287 290 298 296 286 259 241 230 236 241 239 233 233 234 235 219 222 227 227 229 222 199 184 181 221 240 226 214 195 187 193 197 206 205
274 278 279 282 286 285 293 291 275 253 247 244 240 240 243 240 240 237 239 236 227 220 228 231 200 193 202 214 227 230 241 212 204 187 196 215 205 205
270 280 278 281 282 271 268 269 270 271 271 277 269 262 265 257 246 245 239 239 237 232 218 212 217 218 217 218 222 222 223 219 208 199 254 263 198 199
Height
1529 1529 1529 1529 1530 1530 1530 1530 1531 1529 1529 1529 1529 1529 1529 1529 1529 1529 1529 1529 1529 1529 1529 1529 1529 1529 1529 1529 1529 1529 1529 1529 1530 1531 1531 1531 1532 1533
1527 1527 1527 1527 1527 1527 1527 1527 1527 1527 1526 1526 1527 1526 1527 1526 1526 1526 1526 1526 1526 1526 1526 1526 1526 1526 1526 1526 1526 1526 1527 1527 1527 1528 1528 1529 1529 1529
1524 1524 1524 1524 1524 1524 1524 1524 1524 1525 1524 1524 1524 1524 1524 1524 1523 1523 1523 1523 1523 1523 1523 1523 1523 1523 1523 1523 1523 1524 1524 1524 1525 1525 1525 1526 1526 1527
1521 1521 1521 1521 1521 1521 1521 1521 1522 1522 1522 1521 1521 1521 1521 1521 1521 1521 1520 1520 1520 1520 1520 1520 1520 1520 1521 1521 1521 1521 1521 1521 1522 1522 1522 1523 1523 1524
1518 1518 1518 1518 1518 1518 1518 1519 1519 1519 1519 1519 1518 1518 1518 1518 1518 1518 1518 1518 1518 1518 1517 1517 1517 1517 1518 1518 1518 1518 1518 1519 1519 1519 1519 1519 1520 1521
1515 1515 1515 1515 1515 1515 1515 1515 1516 1516 1515 1515 1515 1515 1515 1515 1515 1514 1515 1515 1515 1515 1515 1514 1514 1514 1515 1515 1515 1515 1515 1516 1516 1516 1516 1516 1516 1517
1512 1512 1512 1512 1512 1512 1512 1512 1512 1512 1512 1512 1512 1511 1511 1511 1511 1511 1511 1512 1512 1512 1512 1512 1511 1511 1511 1511 1512 1512 1512 1513 1513 1512 1512 1513 1513 1514
1508 1509 1509 1508 1508 1508 1508 1509 1509 1509 1509 1509 1509 1508 1508 1508 1508 1509 1509 1509 1509 1510 1509 1509 1509 1509 1509 1509 1509 1509 1509 1510 1510 1509 1509 1509 1510 1510
1504 1505 1505 1504 1505 1505 1504 1505 1505 1505 1506 1506 1505 1505 1505 1505 1505 1505 1505 1506 1506 1506 1507 1506 1506 1506 1506 1506 1506 1506 1507 1507 1507 1507 1506 1506 1507 1507
1500 1501 1501 1500 1501 1501 1501 1501 1501 1501 1501 1502 1501 1501 1502 1502 1502 1502 1502 1503 1503 1504 1504 1504 1504 1504 1504 1504 1504 1504 1504 1504 1504 1503 1503 1504 1504 1504
1497 1497 1497 1497 1497 1498 1497 1497 1497 1497 1497 1498 1498 1498 1498 1498 1499 1499 1499 1500 1500 1500 1501 1501 1501 1501 1501 1501 1501 1501 1501 1501 1501 1501 1501 1501 1501 1501
1494 1494 1494 1494 1494 1494 1494 1494 1494 1494 1494 1494 1494 1494 1495 1495 1495 1496 1496 1497 1497 1497 1498 1498 1498 1498 1498 1498 1498 1498 1498 1498 1498 1498 1498 1497 1497 1497
1491 1490 1491 1491 1491 1491 1491 1491 1491 1491 1491 1491 1491 1492 1492 1492 1492 1493 1493 1494 1494 1494 1495 1495 1495 1495 1495 1495 1495 1495 1495 1494 1494 1494 1494 1494 1494 1494
1487 1487 1487 1488 1488 1488 1488 1488 1488 1488 1488 1488 1489 1489 1489 1489 1489 1490 1490 1491 1491 1491 1491 1492 1492 1492 1492 1492 1491 1491 1492 1491 1491 1491 1491 1491 1491 1491
1484 1484 1484 1484 1484 1484 1485 1484 1485 1485 1485 1485 1485 1486 1487 1486 1486 1487 1487 1488 1487 1488 1488 1489 1489 1489 1489 1489 1488 1488 1488 1488 1488 1488 1487 1488 1488 1488
1481 1481 1481 1481 1481 1481 1481 1481 1481 1481 1482 1482 1483 1483 1484 1484 1484 1484 1484 1484 1485 1485 1485 1485 1486 1486 1485 1485 1485 1485 1485 1485 1485 1485 1485 1485 1485 1486
1478 1477 1477 1477 1477 1477 1477 1477 1477 1478 1479 1479 1480 1480 1480 1480 1480 1481 1481 1481 1481 1481 1482 1482 1482 1482 1482 1482 1482 1482 1482 1482 1482 1482 1482 1482 1483 1483
1475 1475 1475 1474 1474 1474 1474 1474 1474 1475 1475 1476 1476 1477 1477 1477 1477 1478 1478 1478 1478 1478 1478 1479 1479 1479 1479 1479 1480 1479 1479 1479 1479 1479 1479 1480 1480 1481
1472 1472 1472 1472 1472 1471 1471 1471 1471 1471 1471 1472 1473 1474 1474 1474 1475 1475 1476 1476 1475 1475 1476 1476 1476 1476 1476 1476 1477 1478 1477 1477 1477 1477 1478 1478 1478 1478
1470 1469 1469 1469 1469 1468 1468 1468 1468 1469 1469 1469 1470 1470 1471 1471 1471 1472 1472 1473 1473 1473 1473 1473 1473 1473 1474 1475 1474 1475 1475 1475 1475 1475 1475 1476 1476 1476
1468 1467 1467 1466 1466 1465 1465 1465 1466 1466 1466 1466 1466 1467 1467 1468 1468 1469 1469 1470 1470 1470 1470 1470 1470 1471 1472 1472 1472 1472 1473 1473 1473 1473 1473 1474 1473 1474
1465 1465 1464 1464 1463 1463 1463 1463 1462 1462 1462 1462 1463 1463 1464 1464 1465 1465 1466 1466 1467 1467 1467 1468 1468 1469 1469 1469 1469 1469 1469 1470 1471 1471 1472 1472 1472 1471
1463 1462 1462 1461 1461 1460 1460 1460 1459 1459 1459 1459 1459 1460 1460 1461 1461 1462 1462 1463 1463 1464 1464 1464 1465 1466 1466 1466 1467 1467 1467 1467 1468 1468 1469 1470 1470 1471